• In Hungary
  • List of Countries
  • For 7 days
  • Water Temperature
  • Satellite Maps
  • Weather Map
  • News
  • Weather Widgets
  • user-avatar
    Login

    Hourly Weather El Quseir

    Today, 22 November, Wednesday

    Time Temperature Precipitation Wind Pressure Humidity
    00:00 +21°C° 0 mm 9 mps 760 mmHg 52%
    01:00 +19°C° 0 mm 9 mps 760 mmHg 56%
    02:00 +19°C° 0 mm 9 mps 760 mmHg 59%
    03:00 +18°C° 0 mm 9 mps 760 mmHg 63%
    04:00 +18°C° 0 mm 9 mps 760 mmHg 66%
    05:00 +17°C° 0 mm 9 mps 760 mmHg 70%
    06:00 +18°C° 0 mm 9 mps 760 mmHg 66%
    07:00 +18°C° 0 mm 9 mps 760 mmHg 63%
    08:00 +19°C° 0 mm 9 mps 761 mmHg 60%
    09:00 +21°C° 0 mm 9 mps 761 mmHg 53%
    10:00 +22°C° 0 mm 9 mps 761 mmHg 46%
    11:00 +23°C° 0 mm 9 mps 761 mmHg 39%
    12:00 +24°C° 0 mm 9 mps 761 mmHg 36%
    13:00 +24°C° 0 mm 9 mps 760 mmHg 33%
    14:00 +24°C° 0 mm 9 mps 760 mmHg 32%
    15:00 +24°C° 0 mm 9 mps 760 mmHg 34%
    16:00 +23°C° 0 mm 10 mps 760 mmHg 36%
    17:00 +22°C° 0 mm 10 mps 760 mmHg 38%
    18:00 +21°C° 0 mm 10 mps 761 mmHg 42%
    19:00 +21°C° 0 mm 9 mps 761 mmHg 45%
    20:00 +19°C° 0 mm 9 mps 761 mmHg 48%
    21:00 +18°C° 0 mm 9 mps 761 mmHg 50%
    22:00 +18°C° 0 mm 9 mps 761 mmHg 53%
    23:00 +17°C° 0 mm 9 mps 761 mmHg 55%

    Tomorrow, 23 November, Thursday

    Time Temperature Precipitation Wind Pressure Humidity
    00:00 +17°C° 0 mm 9 mps 761 mmHg 57%
    01:00 +17°C° 0 mm 8 mps 762 mmHg 60%
    02:00 +16°C° 0 mm 8 mps 762 mmHg 62%
    03:00 +16°C° 0 mm 8 mps 762 mmHg 64%
    04:00 +16°C° 0 mm 8 mps 762 mmHg 66%
    05:00 +15°C° 0 mm 8 mps 762 mmHg 68%
    06:00 +16°C° 0 mm 8 mps 762 mmHg 64%
    07:00 +17°C° 0 mm 8 mps 762 mmHg 61%
    08:00 +17°C° 0 mm 8 mps 763 mmHg 57%
    09:00 +20°C° 0 mm 7 mps 763 mmHg 51%
    10:00 +21°C° 0 mm 7 mps 763 mmHg 45%
    11:00 +22°C° 0 mm 7 mps 763 mmHg 40%
    12:00 +23°C° 0 mm 7 mps 762 mmHg 38%
    13:00 +23°C° 0 mm 7 mps 762 mmHg 36%
    14:00 +24°C° 0 mm 6 mps 761 mmHg 35%
    15:00 +23°C° 0 mm 7 mps 761 mmHg 39%
    16:00 +22°C° 0 mm 7 mps 761 mmHg 42%
    17:00 +21°C° 0 mm 7 mps 761 mmHg 46%
    18:00 +21°C° 0 mm 7 mps 761 mmHg 48%
    19:00 +20°C° 0 mm 7 mps 762 mmHg 50%
    20:00 +18°C° 0 mm 7 mps 762 mmHg 52%
    21:00 +18°C° 0 mm 7 mps 762 mmHg 53%
    22:00 +18°C° 0 mm 7 mps 762 mmHg 53%
    23:00 +17°C° 0 mm 7 mps 762 mmHg 54%

    Day after tomorrow, 24 November, Friday

    Time Temperature Precipitation Wind Pressure Humidity
    00:00 +17°C° 0 mm 7 mps 762 mmHg 56%
    01:00 +17°C° 0 mm 6 mps 762 mmHg 58%
    02:00 +16°C° 0 mm 6 mps 762 mmHg 59%
    03:00 +16°C° 0 mm 6 mps 762 mmHg 61%
    04:00 +16°C° 0 mm 6 mps 762 mmHg 64%
    05:00 +16°C° 0 mm 6 mps 761 mmHg 66%
    06:00 +16°C° 0 mm 6 mps 762 mmHg 63%
    07:00 +17°C° 0 mm 6 mps 762 mmHg 60%
    08:00 +18°C° 0 mm 7 mps 763 mmHg 58%
    09:00 +21°C° 0 mm 7 mps 763 mmHg 53%
    10:00 +22°C° 0 mm 7 mps 763 mmHg 48%
    11:00 +23°C° 0 mm 7 mps 762 mmHg 44%
    12:00 +23°C° 0 mm 6 mps 762 mmHg 42%
    13:00 +24°C° 0 mm 6 mps 762 mmHg 41%
    14:00 +24°C° 0 mm 6 mps 761 mmHg 39%
    15:00 +23°C° 0 mm 5 mps 761 mmHg 42%
    16:00 +23°C° 0 mm 5 mps 761 mmHg 44%
    17:00 +22°C° 0 mm 5 mps 761 mmHg 47%
    18:00 +21°C° 0 mm 5 mps 762 mmHg 50%
    19:00 +21°C° 0 mm 5 mps 762 mmHg 52%
    20:00 +20°C° 0 mm 5 mps 762 mmHg 55%
    21:00 +20°C° 0 mm 5 mps 762 mmHg 55%
    22:00 +19°C° 0 mm 5 mps 762 mmHg 56%
    23:00 +19°C° 0 mm 5 mps 762 mmHg 56%

    25 November, Saturday

    Time Temperature Precipitation Wind Pressure Humidity
    00:00 +19°C° 0 mm 5 mps 762 mmHg 55%
    01:00 +19°C° 0 mm 5 mps 762 mmHg 54%
    02:00 +17°C° 0 mm 5 mps 761 mmHg 52%
    03:00 +17°C° 0 mm 5 mps 761 mmHg 52%
    04:00 +17°C° 0 mm 5 mps 761 mmHg 51%
    05:00 +17°C° 0 mm 5 mps 761 mmHg 51%
    06:00 +19°C° 0 mm 5 mps 761 mmHg 48%
    07:00 +21°C° 0 mm 5 mps 761 mmHg 45%
    08:00 +22°C° 0 mm 5 mps 762 mmHg 41%
    09:00 +23°C° 0 mm 5 mps 762 mmHg 39%
    10:00 +25°C° 0 mm 5 mps 761 mmHg 36%
    11:00 +26°C° 0 mm 5 mps 761 mmHg 33%
    12:00 +26°C° 0 mm 5 mps 761 mmHg 32%
    13:00 +27°C° 0 mm 5 mps 760 mmHg 30%
    14:00 +27°C° 0 mm 5 mps 760 mmHg 29%
    15:00 +26°C° 0 mm 4 mps 760 mmHg 33%
    16:00 +25°C° 0 mm 4 mps 760 mmHg 36%
    17:00 +25°C° 0 mm 4 mps 760 mmHg 40%
    18:00 +23°C° 0 mm 4 mps 760 mmHg 41%
    19:00 +22°C° 0 mm 4 mps 761 mmHg 43%
    20:00 +22°C° 0 mm 4 mps 761 mmHg 44%
    21:00 +21°C° 0 mm 4 mps 761 mmHg 43%
    22:00 +21°C° 0 mm 4 mps 761 mmHg 42%
    23:00 +20°C° 0 mm 5 mps 761 mmHg 41%

    26 November, Sunday

    Time Temperature Precipitation Wind Pressure Humidity
    00:00 +20°C° 0 mm 5 mps 761 mmHg 40%
    01:00 +19°C° 0 mm 5 mps 761 mmHg 39%
    02:00 +19°C° 0 mm 6 mps 760 mmHg 38%
    03:00 +19°C° 0 mm 6 mps 760 mmHg 38%
    04:00 +17°C° 0 mm 6 mps 760 mmHg 38%
    05:00 +17°C° 0 mm 6 mps 761 mmHg 38%
    06:00 +19°C° 0 mm 6 mps 761 mmHg 35%
    07:00 +21°C° 0 mm 6 mps 761 mmHg 32%
    08:00 +22°C° 0 mm 6 mps 762 mmHg 29%
    09:00 +23°C° 0 mm 6 mps 762 mmHg 27%
    10:00 +24°C° 0 mm 6 mps 762 mmHg 25%
    11:00 +26°C° 0 mm 6 mps 762 mmHg 23%
    12:00 +27°C° 0 mm 7 mps 761 mmHg 24%
    13:00 +28°C° 0 mm 7 mps 761 mmHg 25%
    14:00 +28°C° 0 mm 7 mps 760 mmHg 25%
    15:00 +27°C° 0 mm 8 mps 760 mmHg 31%
    16:00 +26°C° 0 mm 8 mps 761 mmHg 37%
    17:00 +24°C° 0 mm 8 mps 761 mmHg 42%
    18:00 +23°C° 0 mm 8 mps 761 mmHg 45%
    19:00 +23°C° 0 mm 8 mps 762 mmHg 48%
    20:00 +22°C° 0 mm 8 mps 762 mmHg 51%
    21:00 +21°C° 0 mm 7 mps 762 mmHg 52%
    22:00 +21°C° 0 mm 7 mps 762 mmHg 53%
    23:00 +20°C° 0 mm 7 mps 762 mmHg 54%

    27 November, Monday

    Time Temperature Precipitation Wind Pressure Humidity
    00:00 +20°C° 0 mm 7 mps 762 mmHg 55%
    01:00 +18°C° 0 mm 7 mps 762 mmHg 56%
    02:00 +19°C° 0 mm 6 mps 762 mmHg 56%
    03:00 +19°C° 0 mm 6 mps 762 mmHg 57%
    04:00 +17°C° 0 mm 7 mps 762 mmHg 59%
    05:00 +17°C° 0 mm 7 mps 762 mmHg 60%
    06:00 +18°C° 0 mm 7 mps 762 mmHg 57%
    07:00 +20°C° 0 mm 6 mps 763 mmHg 53%
    08:00 +21°C° 0 mm 6 mps 763 mmHg 50%
    09:00 +22°C° 0 mm 6 mps 763 mmHg 47%
    10:00 +23°C° 0 mm 6 mps 763 mmHg 43%
    11:00 +24°C° 0 mm 6 mps 763 mmHg 40%
    12:00 +24°C° 0 mm 6 mps 762 mmHg 39%
    13:00 +26°C° 0 mm 6 mps 762 mmHg 38%
    14:00 +26°C° 0 mm 6 mps 761 mmHg 37%
    15:00 +26°C° 0 mm 7 mps 761 mmHg 40%
    16:00 +24°C° 0 mm 7 mps 762 mmHg 44%
    17:00 +23°C° 0 mm 7 mps 762 mmHg 48%
    18:00 +22°C° 0 mm 6 mps 762 mmHg 49%
    19:00 +22°C° 0 mm 6 mps 762 mmHg 51%
    20:00 +21°C° 0 mm 6 mps 763 mmHg 53%
    21:00 +20°C° 0 mm 6 mps 763 mmHg 52%
    22:00 +20°C° 0 mm 6 mps 763 mmHg 52%
    23:00 +19°C° 0 mm 6 mps 762 mmHg 52%
    Show more